When you browse on this site, cookies collect data to enhance your experience and personalize the content and advertising you see.
Visit our Privacy Policy to learn more. By continuing to use the site, you agree to this use of cookies and data.
  • en France
  • Liste des pays
  • À 7 jours
  • Température de l'eau
  • Carte météo
  • Widgets météo
  • user-avatar
    Se connecter

    Météo par heure à Batna

    Ce jour, 20 Février, Jeudi

    Heure Température Précipitation Vent Pression Humidité
    00:00 +6°C° 0 mm 1 m/s 675 mmHg 88%
    01:00 +5°C° 0 mm 1 m/s 675 mmHg 86%
    02:00 +5°C° 0 mm 1 m/s 674 mmHg 84%
    03:00 +4°C° 0 mm 0 m/s 674 mmHg 83%
    04:00 +4°C° 0 mm 0 m/s 674 mmHg 84%
    05:00 +3°C° 0 mm 0 m/s 674 mmHg 85%
    06:00 +4°C° 0 mm 1 m/s 673 mmHg 85%
    07:00 +6°C° 0 mm 1 m/s 674 mmHg 78%
    08:00 +8°C° 0 mm 1 m/s 675 mmHg 71%
    09:00 +10°C° 0 mm 1 m/s 676 mmHg 64%
    10:00 +11°C° 0 mm 1 m/s 676 mmHg 58%
    11:00 +13°C° 0 mm 1 m/s 676 mmHg 52%
    12:00 +14°C° 0 mm 2 m/s 676 mmHg 46%
    13:00 +14°C° 0 mm 2 m/s 675 mmHg 45%
    14:00 +15°C° 0 mm 2 m/s 675 mmHg 44%
    15:00 +15°C° 0 mm 2 m/s 675 mmHg 43%
    16:00 +14°C° 0 mm 2 m/s 674 mmHg 48%
    17:00 +12°C° 0 mm 1 m/s 674 mmHg 54%
    18:00 +11°C° 0 mm 1 m/s 674 mmHg 60%
    19:00 +10°C° 0 mm 1 m/s 674 mmHg 63%
    20:00 +10°C° 0 mm 1 m/s 674 mmHg 67%
    21:00 +9°C° 0 mm 1 m/s 674 mmHg 70%
    22:00 +9°C° 0 mm 1 m/s 674 mmHg 72%
    23:00 +8°C° 0 mm 1 m/s 674 mmHg 73%

    Demain, 21 Février, Vendredi

    Heure Température Précipitation Vent Pression Humidité
    00:00 +8°C° 0 mm 1 m/s 674 mmHg 75%
    01:00 +8°C° 0 mm 1 m/s 674 mmHg 75%
    02:00 +7°C° 0 mm 1 m/s 674 mmHg 75%
    03:00 +7°C° 0 mm 1 m/s 673 mmHg 75%
    04:00 +6°C° 0 mm 0 m/s 673 mmHg 76%
    05:00 +5°C° 0 mm 0 m/s 673 mmHg 76%
    06:00 +5°C° 0 mm 0 m/s 673 mmHg 77%
    13:00 +16°C° 0 mm 2 m/s 676 mmHg 35%
    14:00 +16°C° 0 mm 2 m/s 676 mmHg 35%
    15:00 +16°C° 0 mm 2 m/s 676 mmHg 34%
    16:00 +15°C° 0 mm 2 m/s 676 mmHg 41%
    17:00 +13°C° 0 mm 2 m/s 676 mmHg 47%
    18:00 +12°C° 0 mm 2 m/s 676 mmHg 54%
    19:00 +10°C° 0 mm 2 m/s 676 mmHg 60%
    20:00 +10°C° 0 mm 1 m/s 676 mmHg 66%
    21:00 +9°C° 0 mm 1 m/s 676 mmHg 71%
    22:00 +9°C° 0 mm 1 m/s 676 mmHg 72%
    23:00 +8°C° 0 mm 1 m/s 676 mmHg 73%

    Après-demain, 22 Février, Samedi

    Heure Température Précipitation Vent Pression Humidité
    00:00 +8°C° 0 mm 1 m/s 676 mmHg 74%
    01:00 +7°C° 0 mm 1 m/s 676 mmHg 75%
    02:00 +7°C° 0 mm 1 m/s 675 mmHg 76%
    03:00 +6°C° 0 mm 1 m/s 675 mmHg 77%
    04:00 +6°C° 0 mm 1 m/s 676 mmHg 79%
    05:00 +6°C° 0 mm 1 m/s 676 mmHg 82%
    06:00 +5°C° 0 mm 1 m/s 676 mmHg 84%
    07:00 +7°C° 0 mm 1 m/s 677 mmHg 73%
    08:00 +9°C° 0 mm 1 m/s 678 mmHg 63%
    09:00 +10°C° 0 mm 0 m/s 678 mmHg 53%
    10:00 +13°C° 0 mm 1 m/s 679 mmHg 47%
    11:00 +14°C° 0 mm 1 m/s 679 mmHg 41%
    12:00 +15°C° 0 mm 2 m/s 679 mmHg 35%
    13:00 +16°C° 0 mm 2 m/s 679 mmHg 34%
    14:00 +16°C° 0 mm 3 m/s 679 mmHg 33%
    15:00 +16°C° 0 mm 3 m/s 679 mmHg 33%
    16:00 +13°C° 0 mm 3 m/s 678 mmHg 38%
    17:00 +13°C° 0 mm 2 m/s 678 mmHg 42%
    18:00 +10°C° 0 mm 2 m/s 678 mmHg 47%
    19:00 +10°C° 0 mm 1 m/s 678 mmHg 53%
    20:00 +9°C° 0 mm 1 m/s 678 mmHg 58%
    21:00 +8°C° 0 mm 1 m/s 678 mmHg 64%
    22:00 +8°C° 0 mm 1 m/s 678 mmHg 65%
    23:00 +7°C° 0 mm 0 m/s 678 mmHg 66%

    23 Février, Dimanche

    Heure Température Précipitation Vent Pression Humidité
    00:00 +6°C° 0 mm 0 m/s 678 mmHg 67%
    01:00 +7°C° 0 mm 1 m/s 678 mmHg 67%
    02:00 +7°C° 0 mm 1 m/s 678 mmHg 68%
    03:00 +7°C° 0 mm 1 m/s 678 mmHg 68%
    04:00 +7°C° 0 mm 1 m/s 678 mmHg 71%
    05:00 +6°C° 0 mm 1 m/s 678 mmHg 73%
    06:00 +6°C° 0 mm 1 m/s 678 mmHg 76%
    07:00 +8°C° 0 mm 1 m/s 679 mmHg 67%
    08:00 +9°C° 0 mm 2 m/s 680 mmHg 59%
    09:00 +13°C° 0 mm 2 m/s 681 mmHg 50%
    10:00 +14°C° 0 mm 2 m/s 681 mmHg 46%
    11:00 +14°C° 0 mm 3 m/s 681 mmHg 42%
    12:00 +16°C° 0 mm 3 m/s 681 mmHg 37%
    13:00 +16°C° 0 mm 3 m/s 681 mmHg 37%
    14:00 +16°C° 0 mm 3 m/s 680 mmHg 37%
    15:00 +16°C° 0 mm 3 m/s 680 mmHg 37%
    16:00 +15°C° 0 mm 2 m/s 679 mmHg 43%
    17:00 +13°C° 0 mm 2 m/s 679 mmHg 49%
    18:00 +12°C° 0 mm 1 m/s 679 mmHg 56%
    19:00 +11°C° 0 mm 1 m/s 679 mmHg 58%
    20:00 +10°C° 0 mm 1 m/s 679 mmHg 61%
    21:00 +10°C° 0 mm 1 m/s 679 mmHg 64%
    22:00 +9°C° 0 mm 1 m/s 678 mmHg 65%
    23:00 +9°C° 0 mm 1 m/s 678 mmHg 66%

    24 Février, Lundi

    Heure Température Précipitation Vent Pression Humidité
    00:00 +8°C° 0 mm 1 m/s 678 mmHg 67%
    01:00 +8°C° 0 mm 1 m/s 678 mmHg 68%
    02:00 +8°C° 0 mm 1 m/s 677 mmHg 69%
    03:00 +7°C° 0 mm 1 m/s 677 mmHg 69%
    04:00 +7°C° 0 mm 1 m/s 677 mmHg 69%
    05:00 +7°C° 0 mm 1 m/s 676 mmHg 68%
    06:00 +7°C° 0 mm 1 m/s 676 mmHg 68%
    07:00 +9°C° 0 mm 1 m/s 677 mmHg 57%
    08:00 +12°C° 0 mm 1 m/s 678 mmHg 47%
    09:00 +14°C° 0 mm 1 m/s 679 mmHg 36%
    10:00 +15°C° 0 mm 1 m/s 679 mmHg 32%
    11:00 +18°C° 0 mm 1 m/s 679 mmHg 28%
    12:00 +19°C° 0 mm 1 m/s 678 mmHg 24%
    13:00 +18°C° 0 mm 2 m/s 678 mmHg 24%
    14:00 +18°C° 0 mm 2 m/s 678 mmHg 24%
    15:00 +19°C° 0 mm 2 m/s 677 mmHg 24%
    16:00 +17°C° 0 mm 2 m/s 677 mmHg 31%
    17:00 +15°C° 0 mm 1 m/s 676 mmHg 37%
    18:00 +13°C° 0 mm 1 m/s 676 mmHg 44%
    19:00 +12°C° 0 mm 1 m/s 676 mmHg 48%
    20:00 +10°C° 0 mm 0 m/s 676 mmHg 52%
    21:00 +9°C° 0 mm 0 m/s 676 mmHg 56%
    22:00 +9°C° 0 mm 0 m/s 675 mmHg 57%
    23:00 +9°C° 0 mm 0 m/s 675 mmHg 58%

    25 Février, Mardi

    Heure Température Précipitation Vent Pression Humidité
    00:00 +8°C° 0 mm 0 m/s 675 mmHg 58%
    01:00 +8°C° 0 mm 0 m/s 674 mmHg 58%
    02:00 +9°C° 0 mm 1 m/s 674 mmHg 58%
    03:00 +8°C° 0 mm 1 m/s 673 mmHg 58%
    04:00 +8°C° 0 mm 1 m/s 673 mmHg 58%
    05:00 +8°C° 0 mm 1 m/s 673 mmHg 58%
    06:00 +7°C° 0 mm 1 m/s 673 mmHg 58%
    07:00 +10°C° 0 mm 1 m/s 674 mmHg 49%
    08:00 +12°C° 0 mm 2 m/s 674 mmHg 40%
    09:00 +15°C° 0 mm 2 m/s 675 mmHg 31%
    10:00 +16°C° 0 mm 3 m/s 675 mmHg 28%
    11:00 +17°C° 0 mm 4 m/s 675 mmHg 26%
    12:00 +18°C° 0 mm 4 m/s 675 mmHg 24%
    13:00 +18°C° 0 mm 4 m/s 675 mmHg 24%
    14:00 +16°C° 0 mm 5 m/s 674 mmHg 25%
    15:00 +16°C° 0 mm 5 m/s 674 mmHg 25%
    16:00 +15°C° 0 mm 4 m/s 673 mmHg 30%
    17:00 +13°C° 0 mm 3 m/s 673 mmHg 34%
    18:00 +12°C° 0 mm 3 m/s 672 mmHg 39%
    19:00 +12°C° 0 mm 2 m/s 672 mmHg 40%
    20:00 +10°C° 0 mm 2 m/s 672 mmHg 42%
    21:00 +11°C° 0 mm 1 m/s 672 mmHg 44%
    22:00 +10°C° 0 mm 1 m/s 672 mmHg 45%
    23:00 +10°C° 0 mm 1 m/s 672 mmHg 45%
    Voir plus